This is the latest recevied weather packets stored in our database for station/object N3TTT-13. If no packets are shown the sender has not sent any weather packets the latest 10 day(s).
| Time | Temp. | Humidity | Pressure | Rain* | Wind** | Luminosity | Snow |
|---|---|---|---|---|---|---|---|
| 1777598475 | 13.89° C | 68% | 1011.7 hPa | 0 mm | - | 0 W/m² | - |
| 1777598174 | 13.89° C | 69% | 1011.5 hPa | 0 mm | - | 0 W/m² | - |
| 1777597868 | 13.89° C | 69% | 1011.6 hPa | 0 mm | - | 0 W/m² | - |
| 1777597563 | 13.89° C | 68% | 1011.5 hPa | 0 mm | - | 0 W/m² | - |
| 1777597258 | 14.44° C | 67% | 1011.5 hPa | 0 mm | - | 0 W/m² | - |
| 1777596953 | 14.44° C | 66% | 1011.2 hPa | 0 mm | - | 0 W/m² | - |
| 1777596651 | 14.44° C | 67% | 1011.2 hPa | 0 mm | - | 0 W/m² | - |
| 1777596348 | 14.44° C | 66% | 1011.1 hPa | 0 mm | - | 0 W/m² | - |
| 1777596046 | 14.44° C | 67% | 1011 hPa | 0 mm | - | 0 W/m² | - |
| 1777595745 | 14.44° C | 67% | 1010.8 hPa | 0 mm | - | 0 W/m² | - |
| 1777595441 | 15° C | 67% | 1010.8 hPa | 0 mm | - | 0 W/m² | - |
| 1777595138 | 15° C | 67% | 1010.4 hPa | 0 mm | - | 0 W/m² | - |
| 1777594834 | 15° C | 67% | 1010.3 hPa | 0 mm | - | 0 W/m² | - |
| 1777594530 | 15.56° C | 66% | 1010.1 hPa | 0 mm | - | 0 W/m² | - |
| 1777594227 | 15.56° C | 65% | 1010 hPa | 0 mm | - | 0 W/m² | - |
| 1777593922 | 16.11° C | 62% | 1009.8 hPa | 0 mm | - | 0 W/m² | - |
| 1777593619 | 16.11° C | 61% | 1009.9 hPa | 0 mm | - | 0 W/m² | - |
| 1777593314 | 16.67° C | 61% | 1009.7 hPa | 0 mm | - | 0 W/m² | - |
| 1777593009 | 16.67° C | 60% | 1009.6 hPa | 0 mm | - | 0 W/m² | - |
| 1777592703 | 16.67° C | 57% | 1009.4 hPa | 0 mm | - | 2 W/m² | - |
| 1777592399 | 16.67° C | 54% | 1009.2 hPa | 0 mm | - | 3 W/m² | - |
| 1777592094 | 16.67° C | 53% | 1008.9 hPa | 0 mm | - | 6 W/m² | - |
| 1777591792 | 16.67° C | 53% | 1008.7 hPa | 0 mm | - | 10 W/m² | - |
| 1777591482 | 16.67° C | 53% | 1008.8 hPa | 0 mm | - | 15 W/m² | - |
| 1777591178 | 16.67° C | 53% | 1008.7 hPa | 0 mm | - | 16 W/m² | - |
* Rain latest hour (hover to see other rain measurements)
** Current wind speed in m/s (hover to see current wind gust speed)